KOZAKOV Weather Reports


time (UTC)temp
F
wind
direction
speed
knots
gust
knots
rain 1hr
in
rain 24hr
in
rain mn
in
humidity
%
barometer
mb
20260502200017 61 132 6.1 7.8 0.00 0.00 0.00 29
20260502195517 61 127 6.1 6.1 0.00 0.00 0.00 28
20260502195016 61 133 6.1 6.1 0.00 0.00 0.00 28
20260502194518 61 126 6.1 7.8 0.00 0.00 0.00 27
20260502194017 61 125 7.8 7.8 0.00 0.00 0.00 27
20260502193518 61 122 7.8 7.8 0.00 0.00 0.00 27
20260502193017 61 124 6.1 7.8 0.00 0.00 0.00 27
20260502192518 61 127 6.1 7.8 0.00 0.00 0.00 27
20260502192017 61 131 6.1 6.1 0.00 0.00 0.00 27
20260502191518 61 140 6.1 6.1 0.00 0.00 0.00 27
20260502191017 61 143 6.1 6.1 0.00 0.00 0.00 26
20260502190517 61 144 6.1 6.1 0.00 0.00 0.00 26
20260502190019 61 148 6.1 6.1 0.00 0.00 0.00 26
20260502185509 61 147 6.1 6.1 0.00 0.00 0.00 27
20260502185018 61 151 6.1 6.1 0.00 0.00 0.00 27
20260502184517 61 156 6.1 6.1 0.00 0.00 0.00 27
20260502184016 61 164 3.5 6.1 0.00 0.00 0.00 27
20260502183517 61 164 6.1 6.1 0.00 0.00 0.00 27
20260502182510 61 163 6.1 6.1 0.00 0.00 0.00 27
20260502182018 61 169 6.1 6.1 0.00 0.00 0.00 27
20260502181517 61 173 3.5 6.1 0.00 0.00 0.00 27
20260502181017 61 180 3.5 6.1 0.00 0.00 0.00 26
20260502180517 61 180 3.5 3.5 0.00 0.00 0.00 26
20260502170518 63 176 3.5 6.1 0.00 0.00 0.00 26
20260502164017 64 214 3.5 6.1 0.00 0.00 0.00 26
20260502163517 63 184 1.7 3.5 0.00 0.00 0.00 26
20260502163018 63 177 6.1 6.1 0.00 0.00 0.00 26
20260502162516 63 165 3.5 7.8 0.00 0.00 0.00 26
20260502162017 64 180 3.5 6.1 0.00 0.00 0.00 26
20260502161518 64 215 3.5 6.1 0.00 0.00 0.00 26
20260502161016 64 182 1.7 1.7 0.00 0.00 0.00 26
20260502160518 63 167 3.5 6.1 0.00 0.00 0.00 25
20260502152018 64 225 3.5 7.8 0.00 0.00 0.00 25
20260502151517 64 182 3.5 7.8 0.00 0.00 0.00 24
20260502151017 64 189 3.5 7.8 0.00 0.00 0.00 24
20260502150517 64 207 3.5 6.1 0.00 0.00 0.00 24
20260502130518 63 226 1.7 1.7 0.00 0.00 0.00 27
20260502123517 64 155 3.5 6.1 0.00 0.00 0.00 28
20260502123018 64 215 1.7 3.5 0.00 0.00 0.00 28
20260502122517 64 129 0.0 1.7 0.00 0.00 0.00 28
20260502122020 61 176 3.5 6.1 0.00 0.00 0.00 29
20260502121518 61 155 3.5 3.5 0.00 0.00 0.00 30
20260502121018 61 173 6.1 6.1 0.00 0.00 0.00 30
20260502120518 63 212 3.5 6.1 0.00 0.00 0.00 30
20260502115517 63 213 3.5 6.1 0.00 0.00 0.00 31
20260502115018 61 137 6.1 7.8 0.00 0.00 0.00 32
20260502114518 61 161 6.1 7.8 0.00 0.00 0.00 32
20260502114017 63 212 1.7 6.1 0.00 0.00 0.00 32
20260502113517 63 230 1.7 3.5 0.00 0.00 0.00 32
20260502113018 61 264 1.7 3.5 0.00 0.00 0.00 32
20260502112517 61 182 1.7 3.5 0.00 0.00 0.00 34
20260502112019 61 192 0.0 1.7 0.00 0.00 0.00 33
20260502111517 59 133 7.8 9.6 0.00 0.00 0.00 34
20260502111017 61 216 3.5 6.1 0.00 0.00 0.00 34
20260502110518 61 164 3.5 7.8 0.00 0.00 0.00 34
20260502110018 61 263 3.5 6.1 0.00 0.00 0.00 35
20260502105517 61 200 3.5 6.1 0.00 0.00 0.00 35
20260502105018 59 184 3.5 6.1 0.00 0.00 0.00 35
20260502104517 61 158 3.5 3.5 0.00 0.00 0.00 35
20260502104018 61 158 6.1 7.8 0.00 0.00 0.00 35
20260502103517 61 207 6.1 6.1 0.00 0.00 0.00 35
20260502103018 61 279 1.7 3.5 0.00 0.00 0.00 35
20260502102518 61 186 1.7 3.5 0.00 0.00 0.00 35
20260502102020 61 196 3.5 6.1 0.00 0.00 0.00 34
20260502101518 61 203 1.7 3.5 0.00 0.00 0.00 35
20260502101018 59 165 3.5 6.1 0.00 0.00 0.00 35
20260502100517 61 236 1.7 1.7 0.00 0.00 0.00 35
20260502091517 59 195 3.5 7.8 0.00 0.00 0.00 40
20260502091018 59 201 1.7 3.5 0.00 0.00 0.00 41
20260502090517 59 226 1.7 3.5 0.00 0.00 0.00 41
20260502071517 59 184 0.0 0.0 0.00 0.00 0.00 46
20260502071017 57 186 0.0 1.7 0.00 0.00 0.00 46
20260502070517 57 190 0.0 1.7 0.00 0.00 0.00 45
20260502070017 57 190 0.0 0.0 0.00 0.00 0.00 46
20260502065518 57 190 0.0 1.7 0.00 0.00 0.00 45
20260502065017 55 182 1.7 1.7 0.00 0.00 0.00 45
20260502064517 57 168 1.7 1.7 0.00 0.00 0.00 43
20260502064017 57 168 0.0 1.7 0.00 0.00 0.00 43
20260502063017 57 161 1.7 1.7 0.00 0.00 0.00 43
20260502062021 57 161 0.0 1.7 0.00 0.00 0.00 43
20260502061517 57 161 1.7 1.7 0.00 0.00 0.00 44
20260502061017 57 161 0.0 0.0 0.00 0.00 0.00 44
20260502060017 55 161 0.0 1.7 0.00 0.00 0.00 44
20260502053518 55 161 1.7 1.7 0.00 0.00 0.00 45
20260502053017 55 161 0.0 1.7 0.00 0.00 0.00 44
20260502052517 55 161 0.0 0.0 0.00 0.00 0.00 44
20260502051517 55 161 0.0 0.0 0.00 0.00 0.00 45
20260502050518 54 161 1.7 1.7 0.00 0.00 0.00 45
20260502045509 55 161 0.0 1.7 0.00 0.00 0.00 44
20260502044517 55 161 0.0 0.0 0.00 0.00 0.00 43
20260502044023 55 161 0.0 0.0 0.00 0.00 0.00 44
20260502043510 55 161 0.0 0.0 0.00 0.00 0.00 46
20260502042021 54 161 1.7 1.7 0.00 0.00 0.00 46
20260502041011 54 161 1.7 1.7 0.00 0.00 0.00 45
20260502040010 55 161 0.0 0.0 0.00 0.00 0.00 44
20260502035010 54 161 0.0 0.0 0.00 0.00 0.00 46
20260502033510 54 161 1.7 1.7 0.00 0.00 0.00 47
20260502023517 54 161 1.7 1.7 0.00 0.00 0.00 46
20260502023017 54 161 3.5 3.5 0.00 0.00 0.00 46
20260502022517 54 161 1.7 3.5 0.00 0.00 0.00 46
20260502021518 54 161 1.7 1.7 0.00 0.00 0.00 45
20260502021010 54 161 1.7 1.7 0.00 0.00 0.00 44
20260502020511 54 161 1.7 1.7 0.00 0.00 0.00 45
20260502015017 54 161 1.7 1.7 0.00 0.00 0.00 44
20260502014511 54 146 1.7 1.7 0.00 0.00 0.00 44
20260502011517 54 112 1.7 1.7 0.00 0.00 0.00 43
20260502011011 54 112 1.7 1.7 0.00 0.00 0.00 42
20260502010517 54 112 1.7 1.7 0.00 0.00 0.00 41
20260502010018 54 112 3.5 3.5 0.00 0.00 0.00 41
20260502004018 55 112 1.7 1.7 0.00 0.00 0.00 40
20260502003518 55 112 1.7 1.7 0.00 0.00 0.00 41
20260502003018 55 112 1.7 1.7 0.00 0.00 0.00 42
20260502002517 55 112 1.7 1.7 0.00 0.00 0.00 43
20260502002019 54 112 1.7 1.7 0.00 0.00 0.00 43
20260502001515 54 112 1.7 3.5 0.00 0.00 0.00 44
20260502001018 54 112 3.5 3.5 0.00 0.00 0.00 44
20260502000517 54 112 6.1 6.1 0.00 0.00 0.00 44
20260502000018 54 107 6.1 6.1 0.00 0.00 0.00 44
20260501235517 55 95 6.1 6.1 0.00 0.00 0.00 43
20260501235018 54 95 6.1 6.1 0.00 0.00 0.00 44
20260501234517 54 93 6.1 6.1 0.00 0.00 0.00 43
20260501233517 55 94 6.1 6.1 0.00 0.00 0.00 43
20260501233017 55 91 6.1 7.8 0.00 0.00 0.00 42
20260501232517 55 92 7.8 7.8 0.00 0.00 0.00 42
20260501232020 54 97 6.1 7.8 0.00 0.00 0.00 43
20260501231517 55 104 6.1 7.8 0.00 0.00 0.00 42
20260501231018 55 105 6.1 6.1 0.00 0.00 0.00 42
20260501230517 55 109 7.8 7.8 0.00 0.00 0.00 42
20260501230017 55 101 7.8 7.8 0.00 0.00 0.00 42
20260501225517 54 103 7.8 7.8 0.00 0.00 0.00 42
20260501224517 54 99 6.1 7.8 0.00 0.00 0.00 41
20260501224017 55 93 7.8 9.6 0.00 0.00 0.00 40
20260501223517 55 91 7.8 7.8 0.00 0.00 0.00 41
20260501223018 55 89 7.8 7.8 0.00 0.00 0.00 41
20260501222517 55 93 7.8 7.8 0.00 0.00 0.00 40
20260501222018 55 85 7.8 7.8 0.00 0.00 0.00 40
20260501221518 55 81 7.8 7.8 0.00 0.00 0.00 40
20260501221018 55 76 7.8 9.6 0.00 0.00 0.00 39
20260501220522 55 71 7.8 7.8 0.00 0.00 0.00 39
20260501220017 55 72 7.8 7.8 0.00 0.00 0.00 39
20260501215518 55 73 7.8 9.6 0.00 0.00 0.00 39
20260501214516 55 67 7.8 9.6 0.00 0.00 0.00 40
20260501214017 55 66 7.8 9.6 0.00 0.00 0.00 40
20260501213517 55 64 9.6 9.6 0.00 0.00 0.00 40
20260501213017 55 61 9.6 9.6 0.00 0.00 0.00 39
20260501212518 55 60 9.6 9.6 0.00 0.00 0.00 40
20260501212020 55 61 9.6 9.6 0.00 0.00 0.00 40
20260501211517 55 61 9.6 11.3 0.00 0.00 0.00 40
20260501211017 55 59 9.6 9.6 0.00 0.00 0.00 40
20260501210518 55 58 9.6 9.6 0.00 0.00 0.00 40
20260501210018 55 57 9.6 9.6 0.00 0.00 0.00 41
20260501205517 55 57 7.8 9.6 0.00 0.00 0.00 41
20260501205010 54 51 7.8 9.6 0.00 0.00 0.00 42
20260501204519 55 48 7.8 9.6 0.00 0.00 0.00 41
20260501204016 55 51 11.3 11.3 0.00 0.00 0.00 40
20260501203511 55 48 11.3 11.3 0.00 0.00 0.00 40
20260501203017 55 50 9.6 9.6 0.00 0.00 0.00 39
20260501202522 55 49 7.8 9.6 0.00 0.00 0.00 39
20260501202020 55 44 7.8 9.6 0.00 0.00 0.00 40
20260501201518 55 42 9.6 9.6 0.00 0.00 0.00 40
20260501201018 55 40 7.8 9.6 0.00 0.00 0.00 41
20260501200517 55 35 7.8 7.8 0.00 0.00 0.00 41